Chadron, NE

3:40 AM MDT on August 22, 2017 (GMT -0600)
Chadron Municipal

Weather History for KCDR - December, 2012

Change the Weather History Date:

Tuesday, December 4, 2012

  Actual Average Record
Temperature  
Mean Temperature 38 °F 26 °F  
Max Temperature 55 °F 40 °F 72 °F (1980)
Min Temperature 20 °F 12 °F -7 °F (2005)
Degree Days  
Heating Degree Days 27 39  
Month to date heating degree days 85 154  
Since 1 July heating degree days 1564 1838  
Cooling Degree Days 0 0  
Month to date cooling degree days 0 0  
Year to date cooling degree days 1167 712  
Moisture  
Dew Point 19 °F    
Average Humidity 50    
Maximum Humidity 81    
Minimum Humidity 19    
Precipitation  
Precipitation 0.00 in 0.02 in 0.25 in (1960)
Month to date precipitation 0.00 0.07  
Year to date precipitation 7.87 17.60  
Sea Level Pressure  
Sea Level Pressure 30.24 in    
Wind  
Wind Speed 7 mph (SW)    
Max Wind Speed 21 mph    
Max Gust Speed 24 mph    
Visibility 10 miles    
Events      
T = Trace of Precipitation, MM = Missing Value Source: NWS Daily Summary

Daily Weather History Graph

Daily Weather History Graph

Search for Another Location

Airport or City:

Trip Planner

Search our weather history database for the weather conditions in past years. The results will help you decide how hot, cold, wet, or windy it might be!

Date:

Astronomy

Dec. 04, 2012 Rise Set
Actual Time 7:07 AM MST 4:18 PM MST
Civil Twilight 6:35 AM MST 4:50 PM MST
Nautical Twilight 5:59 AM MST 5:25 PM MST
Astronomical Twilight 5:25 AM MST 5:59 PM MST
Moon 10:13 PM MST (12/4) 10:57 AM MST (12/4)
Length of Visible Light 10h 15m
Length of Day
9h 11m
Waning Gibbous, 69% of the Moon is Illuminated
Dec 4
Waning Gibbous
Dec 6
Last Quarter
Dec 13
New
Dec 19
First Quarter
Dec 28
Full

Hourly Weather History & Observations

Time (MST) Temp. Windchill Dew Point Humidity Pressure Visibility Wind Dir Wind Speed Gust Speed Precip Events Conditions
12:53 AM 30.0 °F 23.2 °F 19.0 °F 64% 30.24 in 10.0 mi WSW 6.9 mph - N/A   Clear
1:53 AM 30.0 °F 24.1 °F 19.0 °F 64% 30.27 in 10.0 mi SSW 5.8 mph - N/A   Clear
2:53 AM 27.0 °F 19.5 °F 18.0 °F 69% 30.29 in 10.0 mi SW 6.9 mph - N/A   Clear
3:53 AM 27.0 °F 23.0 °F 18.0 °F 69% 30.32 in 10.0 mi WSW 3.5 mph - N/A   Clear
5:53 AM 26.1 °F 20.5 °F 18.0 °F 71% 30.38 in 10.0 mi WSW 4.6 mph - N/A   Clear
6:53 AM 21.9 °F 13.4 °F 16.0 °F 78% 30.40 in 10.0 mi SW 6.9 mph - N/A   Clear
7:53 AM 25.0 °F 17.1 °F 19.0 °F 78% 30.40 in 10.0 mi SW 6.9 mph - N/A   Clear
8:53 AM 32.0 °F - 21.9 °F 66% 30.38 in 10.0 mi Calm Calm - N/A   Clear
9:53 AM 42.1 °F - 26.1 °F 53% 30.36 in 10.0 mi Calm Calm - N/A   Clear
10:53 AM 48.9 °F - 21.9 °F 35% 30.32 in 10.0 mi Calm Calm - N/A   Clear
11:53 AM 53.1 °F - 17.1 °F 24% 30.25 in 10.0 mi South 13.8 mph - N/A   Clear
12:53 PM 53.1 °F - 16.0 °F 23% 30.20 in 10.0 mi SSW 16.1 mph - N/A   Clear
1:53 PM 54.0 °F - 12.9 °F 20% 30.16 in 10.0 mi SW 13.8 mph - N/A   Clear
2:53 PM 53.1 °F - 14.0 °F 21% 30.14 in 10.0 mi SSW 9.2 mph - N/A   Clear
3:53 PM 50.0 °F - 17.1 °F 27% 30.13 in 10.0 mi South 15.0 mph - N/A   Clear
4:53 PM 48.0 °F - 18.0 °F 30% 30.12 in 10.0 mi South 18.4 mph - N/A   Clear
5:53 PM 45.0 °F 39.7 °F 18.0 °F 34% 30.14 in 10.0 mi SSW 10.4 mph - N/A   Clear
6:53 PM 39.0 °F 34.8 °F 19.0 °F 45% 30.18 in 10.0 mi West 5.8 mph - N/A   Clear
7:53 PM 35.1 °F - 19.9 °F 54% 30.21 in 10.0 mi Calm Calm - N/A   Clear
8:53 PM 37.0 °F 29.3 °F 21.0 °F 52% 30.18 in 10.0 mi SSW 11.5 mph - N/A   Clear
9:53 PM 34.0 °F 29.8 °F 21.0 °F 59% 30.16 in 10.0 mi WSW 4.6 mph - N/A   Clear
10:53 PM 30.9 °F 24.3 °F 21.0 °F 67% 30.15 in 10.0 mi WSW 6.9 mph - N/A   Clear
11:53 PM 30.0 °F 24.1 °F 21.9 °F 72% 30.14 in 10.0 mi SSW 5.8 mph - N/A   Clear